Terminal Aerodrome Forecast
Issued by NWS

Home | Current Version | Previous Version | Text Only | Print | Product List | Glossary On
Versions: 1 2 3 4 5 6 7 8 9 10 11 12 13 14 15 16 17 18 19 20 21 22 23 24 25 26 27 28 29 30 31 32 33 34 35 36 37 38 39 40 41 42 43 44 45 46 47 48 49 50
000
FTUS43 KMKX 160213 AAB
TAFENW
TAF AMD
KENW 160213Z 1602/1624 29004KT 1SM BR SKC
      TEMPO 1602/1606 1/4SM FG
     FM160600 30004KT 2SM BR SKC
      TEMPO 1606/1610 1/2SM FG SCT003
     FM161000 30003KT 1SM BR SCT003
     FM161230 29004KT P6SM FEW030
     FM161500 27005KT P6SM FEW040
     FM162000 VRB04KT P6SM FEW050=

USA.gov is the U.S. government's official web portal to all federal, state and local government web resources and services.